Location: Newark
(34.3481°N, 134.0494°E)
Time: 19:46:51
(UTC+00:00)

Transit 4A - All Passes

Search period start: 27 January 2020 00:00
Search period end: 06 February 2020 00:00
Orbit: 872 x 973 km, 66.8° (Epoch: 27 January)

Date Brightness Start Highest point End Pass type
(mag) Time Alt. Az. Time Alt. Az. Time Alt. Az.
27 Jan - 05:04:37 10° N 05:08:42 19° NE 05:12:47 10° E daylight
27 Jan - 06:49:41 10° NW 06:55:26 61° WSW 07:01:14 10° SSE daylight
27 Jan - 20:06:31 10° S 20:12:23 51° ESE 20:18:06 10° NE visible
27 Jan - 21:54:15 10° WSW 21:58:57 23° NW 22:03:36 10° N daylight
28 Jan - 05:13:19 10° N 05:18:17 28° NE 05:23:16 10° ESE daylight
28 Jan - 06:59:17 10° NW 07:04:38 38° WSW 07:10:03 10° S daylight
28 Jan - 20:15:34 10° SSW 20:21:38 79° ESE 20:27:35 10° NNE visible
28 Jan - 22:05:04 10° W 22:08:35 16° NW 22:12:06 10° NNW daylight
29 Jan - 05:22:15 10° NNW 05:27:46 42° ENE 05:33:20 10° SE daylight
29 Jan - 07:09:12 10° NW 07:13:47 24° WSW 07:18:25 10° SSW daylight
29 Jan - 18:42:00 10° SE 18:45:15 15° ESE 18:48:28 10° ENE visible
29 Jan - 20:24:56 10° SW 20:30:57 68° WNW 20:36:52 10° NNE visible
29 Jan - 22:17:22 10° NW 22:18:20 10° NW 22:19:20 10° NW daylight
30 Jan - 05:31:22 10° NNW 05:37:10 66° ENE 05:43:02 10° SE daylight
30 Jan - 07:19:43 10° WNW 07:22:52 15° WSW 07:26:02 10° SW daylight
30 Jan - 18:49:36 10° SSE 18:54:20 24° ESE 18:59:00 10° NE visible
30 Jan - 20:34:36 10° SW 20:40:21 44° WNW 20:46:00 10° NNE visible
31 Jan - 03:56:15 10° NNE 03:59:30 15° NE 04:02:44 10° E daylight
31 Jan - 05:40:39 10° NNW 05:46:29 81° WSW 05:52:23 10° SSE daylight
31 Jan - 18:57:57 10° S 19:03:29 38° ESE 19:08:55 10° NE visible
31 Jan - 20:44:38 10° WSW 20:49:50 30° NW 20:54:58 10° N visible
01 Feb - 04:04:41 10° N 04:09:09 22° NE 04:13:37 10° ESE daylight
01 Feb - 05:50:06 10° NW 05:55:44 52° WSW 06:01:27 10° S daylight
01 Feb - 19:06:45 10° S 19:12:42 60° ESE 19:18:31 10° NE visible
01 Feb - 20:55:05 10° W 20:59:24 20° NW 21:03:41 10° N visible
02 Feb - 04:13:29 10° N 04:18:42 33° NE 04:23:56 10° ESE daylight
02 Feb - 05:59:48 10° NW 06:04:56 33° WSW 06:10:07 10° S daylight
02 Feb - 17:35:32 10° ESE 17:36:27 10° ESE 17:37:22 10° E visible
02 Feb - 19:15:54 10° SSW 19:21:59 89° WNW 19:27:55 10° NNE visible
02 Feb - 21:06:12 10° WNW 21:09:05 14° NW 21:11:57 10° NNW visible
03 Feb - 04:22:30 10° NNW 04:28:09 50° ENE 04:33:52 10° SE daylight
03 Feb - 06:09:52 10° WNW 06:14:03 21° WSW 06:18:17 10° SSW daylight
03 Feb - 17:41:37 10° SE 17:45:30 18° ESE 17:49:21 10° ENE visible
03 Feb - 19:25:23 10° SW 19:31:19 58° WNW 19:37:10 10° NNE visible
04 Feb - 02:48:23 10° NNE 02:50:15 11° NE 02:52:07 10° ENE daylight
04 Feb - 04:31:40 10° NNW 04:37:31 77° ENE 04:43:26 10° SSE daylight
04 Feb - 06:20:53 10° W 06:23:07 12° WSW 06:25:22 10° SW daylight
04 Feb - 17:49:33 10° SSE 17:54:37 28° ESE 17:59:36 10° NE visible
04 Feb - 19:35:11 10° SW 19:40:45 38° WNW 19:46:14 10° N visible
05 Feb - 02:56:13 10° N 02:59:59 17° NE 03:03:45 10° E daylight
05 Feb - 04:41:00 10° NNW 04:46:49 69° WSW 04:52:42 10° SSE daylight
05 Feb - 17:58:05 10° S 18:03:48 45° ESE 18:09:22 10° NE visible
05 Feb - 19:45:21 10° WSW 19:50:15 26° NW 19:55:06 10° N visible
